When you browse on this site, cookies collect data to enhance your experience and personalize the content and advertising you see.
Visit our Privacy Policy to learn more. By continuing to use the site, you agree to this use of cookies and data.
  • In Czech Republic
  • List of Countries
  • For 7 days
  • Water Temperature
  • Satellite Maps
  • Weather Map
  • Weather Widgets
  • user-avatar
    Login

    Hourly Weather Krasnyy Holm

    Today, 18 November, Sunday

    Time Temperature Precipitation Wind Pressure Humidity
    00:00 0°C° 0.4 mm 4 mps 750 mmHg 95%
    01:00 0°C° 0.4 mm 4 mps 749 mmHg 96%
    02:00 +1°C° 0 mm 3 mps 748 mmHg 95%
    03:00 +1°C° 0.4 mm 3 mps 748 mmHg 96%
    04:00 +2°C° 0.4 mm 2 mps 748 mmHg 96%
    05:00 +1°C° 0.4 mm 2 mps 748 mmHg 97%
    06:00 +1°C° 0.1 mm 2 mps 748 mmHg 97%
    07:00 +1°C° 0.1 mm 2 mps 748 mmHg 97%
    08:00 +1°C° 0 mm 2 mps 748 mmHg 97%
    09:00 +2°C° 0.1 mm 2 mps 749 mmHg 96%
    10:00 +2°C° 0.1 mm 2 mps 749 mmHg 96%
    11:00 +2°C° 0.1 mm 2 mps 750 mmHg 95%
    12:00 +2°C° 0 mm 2 mps 750 mmHg 95%
    13:00 +2°C° 0 mm 2 mps 751 mmHg 95%
    14:00 +2°C° 0 mm 2 mps 751 mmHg 96%
    15:00 +2°C° 0 mm 2 mps 752 mmHg 96%
    16:00 +2°C° 0 mm 2 mps 752 mmHg 96%
    17:00 +1°C° 0 mm 3 mps 753 mmHg 96%
    18:00 +1°C° 0 mm 3 mps 753 mmHg 95%
    19:00 0°C° 0 mm 3 mps 754 mmHg 95%
    20:00 0°C° 0 mm 3 mps 754 mmHg 95%
    21:00 +1°C° 0.1 mm 3 mps 755 mmHg 94%
    22:00 +1°C° 0.1 mm 3 mps 755 mmHg 93%
    23:00 0°C° 0.1 mm 4 mps 756 mmHg 92%

    Tomorrow, 19 November, Monday

    Time Temperature Precipitation Wind Pressure Humidity
    00:00 -1°C° 0.1 mm 4 mps 756 mmHg 91%
    01:00 -1°C° 0.1 mm 4 mps 756 mmHg 90%
    02:00 -1°C° 0.1 mm 4 mps 757 mmHg 89%
    03:00 -2°C° 0 mm 4 mps 757 mmHg 89%
    04:00 -2°C° 0 mm 4 mps 758 mmHg 89%
    05:00 -1°C° 0 mm 3 mps 758 mmHg 89%
    06:00 -2°C° 0 mm 3 mps 758 mmHg 89%
    07:00 -2°C° 0 mm 3 mps 759 mmHg 88%
    08:00 -2°C° 0 mm 3 mps 759 mmHg 88%
    09:00 -2°C° 0 mm 3 mps 760 mmHg 86%
    10:00 -2°C° 0 mm 3 mps 760 mmHg 85%
    11:00 -2°C° 0 mm 3 mps 760 mmHg 84%
    12:00 -2°C° 0 mm 3 mps 761 mmHg 84%
    13:00 -2°C° 0 mm 3 mps 761 mmHg 83%
    14:00 -4°C° 0 mm 3 mps 761 mmHg 83%
    15:00 -4°C° 0 mm 3 mps 761 mmHg 84%
    16:00 -4°C° 0 mm 3 mps 761 mmHg 85%
    17:00 -5°C° 0 mm 3 mps 761 mmHg 87%
    18:00 -4°C° 0 mm 2 mps 761 mmHg 87%
    19:00 -4°C° 0 mm 2 mps 761 mmHg 87%
    20:00 -4°C° 0 mm 2 mps 761 mmHg 87%
    21:00 -4°C° 0 mm 2 mps 761 mmHg 87%
    22:00 -4°C° 0 mm 2 mps 761 mmHg 86%
    23:00 -4°C° 0 mm 2 mps 761 mmHg 86%

    Day after tomorrow, 20 November, Tuesday

    Time Temperature Precipitation Wind Pressure Humidity
    00:00 -3°C° 0 mm 1 mps 761 mmHg 85%
    01:00 -3°C° 0 mm 1 mps 761 mmHg 85%
    02:00 -3°C° 0 mm 1 mps 761 mmHg 84%
    03:00 -3°C° 0 mm 1 mps 760 mmHg 84%
    04:00 -3°C° 0 mm 1 mps 760 mmHg 83%
    05:00 -5°C° 0 mm 2 mps 759 mmHg 83%
    06:00 -5°C° 0 mm 2 mps 759 mmHg 82%
    07:00 -5°C° 0 mm 2 mps 759 mmHg 81%
    08:00 -5°C° 0 mm 2 mps 758 mmHg 80%
    09:00 -5°C° 0 mm 2 mps 758 mmHg 77%
    10:00 -4°C° 0 mm 2 mps 758 mmHg 73%
    11:00 -4°C° 0 mm 2 mps 757 mmHg 69%
    12:00 -3°C° 0 mm 2 mps 757 mmHg 69%
    13:00 -4°C° 0 mm 3 mps 756 mmHg 70%
    14:00 -4°C° 0 mm 3 mps 756 mmHg 70%
    15:00 -5°C° 0 mm 3 mps 755 mmHg 72%
    16:00 -5°C° 0 mm 3 mps 755 mmHg 75%
    17:00 -5°C° 0 mm 3 mps 755 mmHg 77%
    18:00 -5°C° 0 mm 3 mps 754 mmHg 78%
    19:00 -5°C° 0 mm 3 mps 754 mmHg 79%
    20:00 -5°C° 0 mm 4 mps 754 mmHg 80%
    21:00 -5°C° 0 mm 4 mps 754 mmHg 81%
    22:00 -4°C° 0 mm 4 mps 753 mmHg 82%
    23:00 -4°C° 0 mm 3 mps 753 mmHg 84%

    21 November, Wednesday

    Time Temperature Precipitation Wind Pressure Humidity
    00:00 -4°C° 0 mm 4 mps 753 mmHg 85%
    01:00 -4°C° 0 mm 4 mps 753 mmHg 86%
    02:00 -3°C° 0 mm 4 mps 753 mmHg 87%
    03:00 -3°C° 0 mm 4 mps 754 mmHg 88%
    04:00 -3°C° 0 mm 4 mps 754 mmHg 88%
    05:00 -3°C° 0 mm 4 mps 754 mmHg 88%
    06:00 -3°C° 0 mm 4 mps 754 mmHg 86%
    07:00 -3°C° 0 mm 4 mps 754 mmHg 84%
    08:00 -2°C° 0 mm 3 mps 755 mmHg 82%
    09:00 -3°C° 0 mm 4 mps 755 mmHg 80%
    10:00 -3°C° 0 mm 4 mps 755 mmHg 79%
    11:00 -3°C° 0 mm 4 mps 755 mmHg 77%
    12:00 -2°C° 0 mm 3 mps 755 mmHg 77%
    13:00 -2°C° 0 mm 3 mps 755 mmHg 78%
    14:00 -2°C° 0 mm 3 mps 755 mmHg 79%
    15:00 -4°C° 0 mm 3 mps 755 mmHg 81%
    16:00 -4°C° 0 mm 3 mps 755 mmHg 84%
    17:00 -5°C° 0 mm 3 mps 755 mmHg 86%
    18:00 -5°C° 0 mm 3 mps 754 mmHg 87%
    19:00 -5°C° 0 mm 3 mps 754 mmHg 88%
    20:00 -5°C° 0 mm 4 mps 754 mmHg 88%
    21:00 -5°C° 0 mm 4 mps 753 mmHg 87%
    22:00 -7°C° 0 mm 4 mps 753 mmHg 86%
    23:00 -7°C° 0 mm 4 mps 752 mmHg 85%

    22 November, Thursday

    Time Temperature Precipitation Wind Pressure Humidity
    00:00 -5°C° 0 mm 4 mps 752 mmHg 85%
    01:00 -5°C° 0 mm 4 mps 751 mmHg 85%
    02:00 -6°C° 0 mm 5 mps 751 mmHg 86%
    03:00 -5°C° 0 mm 5 mps 751 mmHg 85%
    04:00 -4°C° 0 mm 6 mps 750 mmHg 84%
    05:00 -4°C° 0 mm 6 mps 750 mmHg 84%
    06:00 -4°C° 0 mm 6 mps 749 mmHg 83%
    07:00 -3°C° 0 mm 6 mps 749 mmHg 83%
    08:00 -3°C° 0 mm 6 mps 749 mmHg 83%
    09:00 -3°C° 0.1 mm 6 mps 749 mmHg 82%
    10:00 -3°C° 0.1 mm 6 mps 748 mmHg 81%
    11:00 -2°C° 0.1 mm 6 mps 748 mmHg 81%
    12:00 -2°C° 0 mm 6 mps 748 mmHg 80%
    13:00 -2°C° 0 mm 6 mps 748 mmHg 80%
    14:00 -2°C° 0 mm 6 mps 748 mmHg 79%
    15:00 -3°C° 0.1 mm 6 mps 749 mmHg 81%
    16:00 -2°C° 0.1 mm 5 mps 749 mmHg 82%
    17:00 -4°C° 0.1 mm 5 mps 750 mmHg 83%
    18:00 -4°C° 0.1 mm 5 mps 750 mmHg 83%
    19:00 -3°C° 0.1 mm 4 mps 751 mmHg 82%
    20:00 -3°C° 0.1 mm 4 mps 752 mmHg 82%
    21:00 -3°C° 0 mm 4 mps 752 mmHg 83%
    22:00 -4°C° 0 mm 3 mps 753 mmHg 84%
    23:00 -4°C° 0 mm 3 mps 753 mmHg 85%

    23 November, Friday

    Time Temperature Precipitation Wind Pressure Humidity
    00:00 -4°C° 0 mm 3 mps 753 mmHg 87%
    01:00 -5°C° 0 mm 3 mps 754 mmHg 88%
    02:00 -5°C° 0 mm 3 mps 754 mmHg 90%
    03:00 -4°C° 0 mm 2 mps 754 mmHg 91%
    04:00 -4°C° 0 mm 2 mps 754 mmHg 92%
    05:00 -4°C° 0 mm 2 mps 754 mmHg 93%
    06:00 -5°C° 0 mm 3 mps 754 mmHg 94%
    07:00 -5°C° 0 mm 3 mps 754 mmHg 94%
    08:00 -5°C° 0 mm 3 mps 754 mmHg 94%
    09:00 -5°C° 0 mm 4 mps 753 mmHg 93%
    10:00 -4°C° 0 mm 4 mps 753 mmHg 91%
    11:00 -5°C° 0 mm 5 mps 753 mmHg 89%
    12:00 -4°C° 0 mm 5 mps 752 mmHg 89%
    13:00 -4°C° 0 mm 5 mps 751 mmHg 88%
    14:00 -3°C° 0 mm 6 mps 751 mmHg 87%
    15:00 -3°C° 0 mm 6 mps 750 mmHg 86%
    16:00 -3°C° 0 mm 6 mps 749 mmHg 85%
    17:00 -3°C° 0 mm 7 mps 748 mmHg 85%
    18:00 -3°C° 0 mm 7 mps 748 mmHg 83%
    19:00 -3°C° 0 mm 7 mps 747 mmHg 82%
    20:00 -4°C° 0 mm 7 mps 746 mmHg 81%
    21:00 -3°C° 0.1 mm 7 mps 746 mmHg 81%
    22:00 -3°C° 0.1 mm 7 mps 746 mmHg 81%
    23:00 -3°C° 0.1 mm 7 mps 745 mmHg 81%
    Show more